FW3305 Weather Reports


time (UTC)temp
F
wind
direction
speed
knots
gust
knots
rain 1hr
in
rain 24hr
in
rain mn
in
humidity
%
barometer
mb
20260508013356 63 240 0.0 2.6 0.00 0.00 0.00 52 1012.0
20260508013120 62 240 0.0 2.6 0.00 0.00 0.00 52 1012.0
20260508012842 63 240 0.9 2.6 0.00 0.00 0.00 52 1012.0
20260508012347 63 223 0.9 2.6 0.00 0.00 0.00 52 1012.0
20260508011853 63 223 0.9 2.6 0.00 0.00 0.00 51 1011.9
20260508011616 63 215 0.0 4.3 0.00 0.00 0.00 51 1011.9
20260508011419 64 261 0.9 4.3 0.00 0.00 0.00 51 1012.0
20260508010904 64 163 1.7 6.1 0.00 0.00 0.00 51 1011.9
20260508010409 64 227 1.7 6.1 0.00 0.00 0.00 51 1011.9
20260508010146 64 233 0.0 6.1 0.00 0.00 0.00 51 1011.8
20260508005856 64 236 1.7 7.0 0.00 0.00 0.00 51 1011.8
20260508005341 64 266 1.7 7.0 0.00 0.00 0.00 50 1011.8
20260508004846 65 236 1.7 7.0 0.00 0.00 0.00 50 1011.7
20260508004610 64 234 0.9 7.0 0.00 0.00 0.00 49 1011.7
20260508004351 65 243 2.6 7.0 0.00 0.00 0.00 49 1011.7
20260508003857 65 238 1.7 6.1 0.00 0.00 0.00 49 1011.7
20260508003344 65 241 0.9 4.3 0.00 0.00 0.00 49 1011.7
20260508003109 65 236 1.7 4.3 0.00 0.00 0.00 48 1011.6
20260508002850 65 107 1.7 4.3 0.00 0.00 0.00 48 1011.7
20260508002356 65 219 0.9 7.0 0.00 0.00 0.00 48 1011.7
20260508001841 65 238 1.7 7.0 0.00 0.00 0.00 47 1011.7
20260508001605 65 240 1.7 7.0 0.00 0.00 0.00 47 1011.6
20260508001346 66 266 0.9 6.1 0.00 0.00 0.00 47 1011.7
20260508000914 66 245 1.7 6.1 0.00 0.00 0.00 47 1011.6
20260508000358 66 240 1.7 6.1 0.00 0.00 0.00 47 1011.6
20260508000134 65 281 0.9 6.1 0.00 0.00 0.00 47 1011.5
20260507235845 66 257 0.9 7.0 0.00 0.00 0.00 47 1011.7
20260507235349 66 236 1.7 7.0 0.00 0.00 0.00 47 1011.6
20260507234854 66 246 1.7 4.3 0.00 0.00 0.00 47 1011.6
20260507234501 66 210 0.0 7.0 0.00 0.00 0.00 47 1011.7
20260507234400 66 207 0.9 7.0 0.00 0.00 0.00 47 1011.7
20260507233846 66 232 2.6 7.0 0.00 0.00 0.00 46 1011.7
20260507233352 66 245 1.7 6.1 0.00 0.00 0.00 47 1011.6
20260507233120 66 242 1.7 6.1 0.00 0.00 0.00 47 1011.6
20260507232857 66 246 1.7 7.8 0.00 0.00 0.00 46 1011.7
20260507232344 66 240 3.5 9.6 0.00 0.00 0.00 46 1011.7
20260507231850 66 238 4.3 9.6 0.00 0.00 0.00 46 1011.8
20260507231614 66 230 0.9 7.8 0.00 0.00 0.00 46 1011.8
20260507231356 66 244 1.7 7.8 0.00 0.00 0.00 47 1011.9
20260507230903 66 245 4.3 8.7 0.00 0.00 0.00 46 1011.9
20260507230347 67 238 2.6 6.1 0.00 0.00 0.00 46 1012.0
20260507230144 66 242 2.6 6.1 0.00 0.00 0.00 45 1012.0
20260507225855 67 193 1.7 7.8 0.00 0.00 0.00 46 1012.0
20260507225402 67 251 2.6 7.8 0.00 0.00 0.00 44 1012.1
20260507224846 68 244 1.7 8.7 0.00 0.00 0.00 44 1012.0
20260507224610 67 251 0.9 8.7 0.00 0.00 0.00 45 1012.1
20260507224351 68 229 3.5 8.7 0.00 0.00 0.00 44 1011.9
20260507223859 68 236 1.7 7.0 0.00 0.00 0.00 45 1012.0
20260507223405 67 249 2.6 7.8 0.00 0.00 0.00 45 1012.0
20260507223109 67 236 0.9 7.8 0.00 0.00 0.00 47 1012.1
20260507222848 67 250 3.5 7.8 0.00 0.00 0.00 45 1012.1
20260507222354 67 248 1.7 8.7 0.00 0.00 0.00 45 1012.2
20260507221900 68 236 3.5 8.7 0.00 0.00 0.00 44 1012.2
20260507221605 67 245 0.9 6.1 0.00 0.00 0.00 46 1012.2
20260507221345 68 238 1.7 6.1 0.00 0.00 0.00 46 1012.2
20260507220913 68 248 0.9 10.4 0.00 0.00 0.00 45 1012.2
20260507220419 67 239 2.6 10.4 0.00 0.00 0.00 46 1012.2
20260507220133 67 239 3.5 10.4 0.00 0.00 0.00 45 1012.2
20260507215845 68 240 3.5 11.3 0.00 0.00 0.00 44 1012.1
20260507215351 68 244 2.6 6.1 0.00 0.00 0.00 45 1012.2
20260507214918 68 237 2.6 8.7 0.00 0.00 0.00 45 1012.2
20260507214621 68 238 1.7 11.3 0.00 0.00 0.00 44 1012.2
20260507214343 68 247 3.5 11.3 0.00 0.00 0.00 44 1012.1
20260507213849 68 251 2.6 11.3 0.00 0.00 0.00 43 1012.2
20260507213355 68 232 2.6 9.6 0.00 0.00 0.00 44 1012.1
20260507213118 68 248 2.6 9.6 0.00 0.00 0.00 45 1012.3
20260507212840 68 244 2.6 9.6 0.00 0.00 0.00 44 1012.2
20260507212345 68 219 2.6 7.8 0.00 0.00 0.00 44 1012.2
20260507211912 68 240 0.9 6.1 0.00 0.00 0.00 46 1012.2
20260507211616 68 203 2.6 7.8 0.00 0.00 0.00 44 1012.2
20260507211356 68 248 2.6 7.8 0.00 0.00 0.00 45 1012.3
20260507210843 68 243 2.6 8.7 0.00 0.00 0.00 43 1012.4
20260507210350 68 240 3.5 8.7 0.00 0.00 0.00 43 1012.5
20260507210145 68 243 3.5 7.0 0.00 0.00 0.00 42 1012.4
20260507205857 68 249 1.7 7.0 0.00 0.00 0.00 44 1012.4
20260507205342 68 231 1.7 7.0 0.00 0.00 0.00 44 1012.5
20260507204910 68 237 1.7 8.7 0.00 0.00 0.00 43 1012.5
20260507204623 68 248 2.6 9.6 0.00 0.00 0.00 42 1012.6
20260507204353 68 250 2.6 9.6 0.00 0.00 0.00 42 1012.6
20260507203858 68 241 2.6 6.1 0.00 0.00 0.00 43 1012.7
20260507203403 68 249 0.9 9.6 0.00 0.00 0.00 44 1012.7
20260507203110 67 256 1.7 9.6 0.00 0.00 0.00 42 1012.7
20260507202847 68 240 4.3 8.7 0.00 0.00 0.00 42 1012.8
20260507202352 68 199 2.6 7.8 0.00 0.00 0.00 44 1012.8
20260507201858 67 254 2.6 8.7 0.00 0.00 0.00 43 1013.0
20260507201622 67 237 0.9 8.7 0.00 0.00 0.00 44 1012.9
20260507201343 67 256 3.5 8.7 0.00 0.00 0.00 43 1013.1
20260507200849 67 272 1.7 6.1 0.00 0.00 0.00 46 1013.1
20260507200356 67 251 0.9 6.1 0.00 0.00 0.00 43 1013.2
20260507200152 67 251 1.7 8.7 0.00 0.00 0.00 42 1013.2
20260507195844 67 233 3.5 8.7 0.00 0.00 0.00 42 1013.3
20260507195349 67 250 2.6 7.0 0.00 0.00 0.00 42 1013.3
20260507194916 68 238 2.6 7.0 0.00 0.00 0.00 43 1013.4
20260507194502 67 248 3.5 8.7 0.00 0.00 0.00 43 1013.4
20260507194400 67 236 3.5 8.7 0.00 0.00 0.00 44 1013.4
20260507193844 67 240 2.6 8.7 0.00 0.00 0.00 42 1013.4
20260507193350 67 225 2.6 7.8 0.00 0.00 0.00 43 1013.4
20260507193133 67 253 1.7 7.8 0.00 0.00 0.00 43 1013.6
20260507192856 67 244 1.7 7.8 0.00 0.00 0.00 44 1013.5
20260507192341 67 257 0.9 8.7 0.00 0.00 0.00 44 1013.5
20260507191846 67 229 2.6 8.7 0.00 0.00 0.00 42 1013.6
20260507191611 66 243 2.6 8.7 0.00 0.00 0.00 44 1013.6
20260507191352 67 252 3.5 8.7 0.00 0.00 0.00 44 1013.6
20260507190858 67 246 3.5 7.8 0.00 0.00 0.00 45 1013.8
20260507190343 66 257 2.6 7.8 0.00 0.00 0.00 45 1013.7
20260507190140 66 233 1.7 7.8 0.00 0.00 0.00 46 1013.8
20260507185851 66 244 1.7 7.0 0.00 0.00 0.00 47 1013.8
20260507185356 66 255 0.9 7.0 0.00 0.00 0.00 46 1013.9
20260507184842 66 244 2.6 7.8 0.00 0.00 0.00 45 1014.0
20260507184608 65 235 1.7 7.8 0.00 0.00 0.00 45 1014.0
20260507184347 66 240 2.6 7.8 0.00 0.00 0.00 46 1014.0
20260507183853 66 244 1.7 7.0 0.00 0.00 0.00 45 1014.1
20260507183342 66 237 2.6 7.0 0.00 0.00 0.00 46 1014.0
20260507183124 66 250 0.0 7.0 0.00 0.00 0.00 45 1014.1
20260507182847 67 257 1.7 7.8 0.00 0.00 0.00 45 1014.0
20260507182408 67 244 2.6 7.8 0.00 0.00 0.00 44 1014.0
20260507181853 67 246 1.7 8.7 0.00 0.00 0.00 46 1014.1
20260507181616 67 240 1.7 8.7 0.00 0.00 0.00 45 1014.2
20260507181342 67 247 2.6 8.7 0.00 0.00 0.00 45 1014.1
20260507180847 67 236 1.7 7.8 0.00 0.00 0.00 44 1014.1
20260507180408 67 253 2.6 7.8 0.00 0.00 0.00 49 1014.2
20260507180014 66 232 2.6 7.8 0.00 0.00 0.00 48 1014.3
20260507175914 67 248 2.6 7.8 0.00 0.00 0.00 47 1014.2
20260507175420 66 245 2.6 8.7 0.00 0.00 0.00 48 1014.4
20260507174844 66 222 3.5 8.7 0.00 0.00 0.00 46 1014.6
20260507174610 65 238 2.6 7.8 0.00 0.00 0.00 47 1014.7
20260507174411 66 225 1.7 7.8 0.00 0.00 0.00 47 1014.6
20260507173854 66 282 2.6 7.0 0.00 0.00 0.00 47 1014.7
20260507173359 66 217 1.7 8.7 0.00 0.00 0.00 48 1014.6
20260507173135 65 258 0.9 8.7 0.00 0.00 0.00 47 1014.7
20260507172844 65 250 3.5 9.6 0.00 0.00 0.00 49 1014.8
20260507172411 65 244 3.5 9.6 0.00 0.00 0.00 46 1014.9
20260507171857 65 232 1.7 4.3 0.00 0.00 0.00 46 1014.9
20260507171621 65 285 0.0 6.1 0.00 0.00 0.00 46 1015.0
20260507171344 65 244 0.9 8.7 0.00 0.00 0.00 47 1014.9
20260507170848 65 265 3.5 9.6 0.00 0.00 0.00 47 1015.0
20260507170353 64 251 3.5 9.6 0.00 0.00 0.00 46 1015.1
20260507170000 63 252 1.7 7.0 0.00 0.00 0.00 47 1015.3
20260507165900 64 257 0.9 7.8 0.00 0.00 0.00 49 1015.2
20260507165346 64 292 0.9 7.8 0.00 0.00 0.00 47 1015.3
20260507164851 64 246 1.7 9.6 0.00 0.00 0.00 47 1015.3
20260507164616 64 235 3.5 9.6 0.00 0.00 0.00 46 1015.4
20260507164357 64 250 4.3 9.6 0.00 0.00 0.00 46 1015.4
20260507163842 64 229 3.5 8.7 0.00 0.00 0.00 47 1015.4
20260507163348 64 263 1.7 7.0 0.00 0.00 0.00 46 1015.4
20260507163113 63 245 2.6 7.0 0.00 0.00 0.00 47 1015.5
20260507162855 64 244 2.6 9.6 0.00 0.00 0.00 48 1015.4
20260507162341 64 249 1.7 9.6 0.00 0.00 0.00 46 1015.5
20260507161847 64 240 3.5 9.6 0.00 0.00 0.00 46 1015.5
20260507161617 63 247 1.7 7.8 0.00 0.00 0.00 47 1015.6
20260507161353 63 248 4.3 7.8 0.00 0.00 0.00 46 1015.5
20260507160919 63 256 1.7 9.6 0.00 0.00 0.00 49 1015.4
20260507160345 63 246 2.6 9.6 0.00 0.00 0.00 47 1015.4
20260507160141 62 248 2.6 9.6 0.00 0.00 0.00 47 1015.6
20260507155853 63 238 2.6 7.0 0.00 0.00 0.00 48 1015.5
20260507155359 63 247 1.7 7.8 0.00 0.00 0.00 50 1015.5
20260507154845 62 227 3.5 7.8 0.00 0.00 0.00 48 1015.5
20260507154612 62 249 2.6 7.0 0.00 0.00 0.00 49 1015.7
20260507154350 62 241 2.6 7.0 0.00 0.00 0.00 48 1015.7
20260507153857 61 252 0.9 8.7 0.00 0.00 0.00 51 1015.7
20260507153343 61 250 2.6 7.0 0.00 0.00 0.00 51 1015.7
20260507153106 60 234 1.7 7.0 0.00 0.00 0.00 49 1015.8
20260507152849 61 249 3.5 8.7 0.00 0.00 0.00 48 1015.7
20260507152355 60 244 3.5 8.7 0.00 0.00 0.00 49 1015.8
20260507151921 60 250 2.6 6.1 0.00 0.00 0.00 50 1015.8
20260507151506 59 254 1.7 6.1 0.00 0.00 0.00 51 1016.0
20260507151404 59 240 0.9 4.3 0.00 0.00 0.00 52 1015.9
20260507150849 58 209 0.9 7.0 0.00 0.00 0.00 53 1016.0
20260507150355 58 239 3.5 7.0 0.00 0.00 0.00 51 1016.0
20260507150149 57 230 0.9 8.7 0.00 0.00 0.00 53 1016.1
20260507145842 58 252 2.6 8.7 0.00 0.00 0.00 51 1016.0
20260507145348 57 244 1.7 8.7 0.00 0.00 0.00 52 1016.2
20260507144852 57 254 1.7 7.0 0.00 0.00 0.00 53 1016.2
20260507144616 56 232 1.7 8.7 0.00 0.00 0.00 52 1016.3
20260507144358 57 256 2.6 8.7 0.00 0.00 0.00 51 1016.2
20260507143844 56 239 3.5 7.8 0.00 0.00 0.00 53 1016.2
20260507143350 56 253 1.7 6.1 0.00 0.00 0.00 54 1016.2
20260507143118 55 290 0.9 6.1 0.00 0.00 0.00 54 1016.3
20260507142857 56 234 2.6 9.6 0.00 0.00 0.00 54 1016.3
20260507142402 55 196 2.6 9.6 0.00 0.00 0.00 55 1016.4
20260507141848 55 234 1.7 6.1 0.00 0.00 0.00 55 1016.4
20260507141625 54 168 0.0 6.1 0.00 0.00 0.00 57 1016.7
20260507141415 55 242 2.6 6.1 0.00 0.00 0.00 57 1016.5
20260507140859 54 228 1.7 6.1 0.00 0.00 0.00 57 1016.6
20260507140407 54 248 0.9 4.3 0.00 0.00 0.00 58 1016.6
20260507140013 53 240 0.9 7.0 0.00 0.00 0.00 60 1016.7
20260507135912 53 205 0.9 7.0 0.00 0.00 0.00 59 1016.6
20260507135356 53 249 1.7 7.0 0.00 0.00 0.00 59 1016.7
20260507134841 53 239 0.9 7.0 0.00 0.00 0.00 60 1016.7
20260507134611 52 244 0.9 7.0 0.00 0.00 0.00 62 1016.8
20260507134347 52 232 1.7 6.1 0.00 0.00 0.00 62 1016.7
20260507133853 52 229 1.7 6.1 0.00 0.00 0.00 62 1016.8
20260507133359 51 238 0.9 3.5 0.00 0.00 0.00 65 1016.8
20260507133121 51 237 0.0 4.3 0.00 0.00 0.00 64 1016.9
20260507132844 51 240 0.9 4.3 0.00 0.00 0.00 64 1016.9
20260507132349 51 231 2.6 4.3 0.00 0.00 0.00 64 1016.8
20260507131853 50 207 0.0 7.0 0.00 0.00 0.00 65 1016.9
20260507131616 49 205 0.0 7.8 0.00 0.00 0.00 64 1017.0
20260507131358 50 225 1.7 7.8 0.00 0.00 0.00 65 1016.9
20260507130844 49 146 0.9 7.0 0.00 0.00 0.00 66 1017.0
20260507130349 49 239 1.7 7.0 0.00 0.00 0.00 68 1016.9
20260507130144 48 105 0.0 1.7 0.00 0.00 0.00 70 1017.1
20260507125856 48 103 0.0 2.6 0.00 0.00 0.00 71 1017.0
20260507125342 47 160 0.0 2.6 0.00 0.00 0.00 71 1017.0
20260507124847 47 153 0.0 1.7 0.00 0.00 0.00 73 1017.0
20260507124610 46 153 0.0 1.7 0.00 0.00 0.00 73 1017.1
20260507124352 46 157 0.0 1.7 0.00 0.00 0.00 74 1017.1
20260507123842 46 190 0.0 1.7 0.00 0.00 0.00 75 1017.1
20260507123404 45 223 0.0 0.9 0.00 0.00 0.00 77 1017.0
20260507123108 44 360 0.0 0.9 0.00 0.00 0.00 78 1017.2
20260507122848 44 355 0.0 0.9 0.00 0.00 0.00 78 1017.1
20260507122354 44 355 0.0 0.9 0.00 0.00 0.00 81 1017.1
20260507121843 43 355 0.0 0.9 0.00 0.00 0.00 82 1017.1
20260507121604 43 355 0.0 0.9 0.00 0.00 0.00 83 1017.2
20260507121351 43 355 0.0 0.0 0.00 0.00 0.00 83 1017.0
20260507120856 43 355 0.0 0.0 0.00 0.00 0.00 83 1017.1
20260507120341 42 355 0.0 0.0 0.00 0.00 0.00 83 1017.1
20260507120152 42 355 0.0 0.0 0.00 0.00 0.00 83 1017.2
20260507115848 42 355 0.0 0.0 0.00 0.00 0.00 83 1017.2
20260507115354 42 355 0.0 0.0 0.00 0.00 0.00 83 1017.2
20260507114859 41 355 0.0 0.0 0.00 0.00 0.00 82 1017.1
20260507114620 41 355 0.0 0.0 0.00 0.00 0.00 82 1017.2
20260507114346 41 355 0.0 0.0 0.00 0.00 0.00 81 1017.0
20260507113914 41 355 0.0 0.0 0.00 0.00 0.00 81 1017.1
20260507113358 41 355 0.0 0.0 0.00 0.00 0.00 81 1017.0
20260507113118 40 355 0.0 0.0 0.00 0.00 0.00 81 1017.2
20260507112842 41 355 0.0 0.0 0.00 0.00 0.00 81 1017.0
20260507112348 41 355 0.0 0.0 0.00 0.00 0.00 81 1016.9
20260507111855 41 355 0.0 0.0 0.00 0.00 0.00 81 1016.8
20260507111614 41 355 0.0 0.0 0.00 0.00 0.00 81 1017.0
20260507111340 41 355 0.0 0.0 0.00 0.00 0.00 81 1016.8
20260507110846 41 355 0.0 0.0 0.00 0.00 0.00 81 1016.8
20260507110351 41 355 0.0 0.0 0.00 0.00 0.00 80 1016.8
20260507110143 41 355 0.0 0.0 0.00 0.00 0.00 80 1016.9
20260507105858 41 355 0.0 0.0 0.00 0.00 0.00 81 1016.8
20260507105343 41 355 0.0 0.0 0.00 0.00 0.00 80 1016.7
20260507104849 41 355 0.0 0.0 0.00 0.00 0.00 80 1016.7
20260507104608 41 355 0.0 0.0 0.00 0.00 0.00 80 1016.9
20260507104355 41 355 0.0 0.0 0.00 0.00 0.00 80 1016.7
20260507103859 42 355 0.0 0.0 0.00 0.00 0.00 80 1016.7
20260507103344 42 355 0.0 0.0 0.00 0.00 0.00 80 1016.7
20260507103102 41 355 0.0 0.0 0.00 0.00 0.00 80 1016.9
20260507102910 42 355 0.0 0.0 0.00 0.00 0.00 80 1016.8
20260507102356 42 355 0.0 0.0 0.00 0.00 0.00 80 1016.8
20260507101843 42 355 0.0 0.0 0.00 0.00 0.00 80 1016.8
20260507101515 41 355 0.0 0.0 0.00 0.00 0.00 80 1016.9
20260507101408 42 355 0.0 0.0 0.00 0.00 0.00 80 1016.8
20260507100854 42 355 0.0 0.0 0.00 0.00 0.00 80 1016.9
20260507100359 42 355 0.0 0.0 0.00 0.00 0.00 80 1016.8
20260507100149 42 355 0.0 0.0 0.00 0.00 0.00 79 1017.0
20260507095846 42 355 0.0 0.0 0.00 0.00 0.00 79 1017.0
20260507095414 42 355 0.0 0.0 0.00 0.00 0.00 79 1017.0
20260507094859 42 355 0.0 0.0 0.00 0.00 0.00 79 1017.0
20260507094506 42 355 0.0 0.0 0.00 0.00 0.00 79 1017.1
20260507094405 43 355 0.0 0.0 0.00 0.00 0.00 79 1016.9
20260507093850 43 355 0.0 0.0 0.00 0.00 0.00 79 1016.9
20260507093356 43 355 0.0 0.0 0.00 0.00 0.00 79 1016.9
20260507093114 42 355 0.0 0.0 0.00 0.00 0.00 79 1017.1
20260507092841 43 355 0.0 0.0 0.00 0.00 0.00 78 1016.9
20260507092347 43 355 0.0 0.0 0.00 0.00 0.00 78 1016.9
20260507091854 43 355 0.0 0.0 0.00 0.00 0.00 78 1017.0
20260507091614 43 355 0.0 0.0 0.00 0.00 0.00 78 1017.1
20260507091359 43 355 0.0 0.0 0.00 0.00 0.00 78 1016.9
20260507090845 44 355 0.0 0.0 0.00 0.00 0.00 78 1017.0
20260507090350 44 355 0.0 0.0 0.00 0.00 0.00 78 1017.1
20260507090143 43 355 0.0 0.0 0.00 0.00 0.00 78 1017.2
20260507085858 44 355 0.0 0.0 0.00 0.00 0.00 78 1017.1
20260507085404 44 355 0.0 0.0 0.00 0.00 0.00 78 1017.1
20260507084849 44 355 0.0 0.0 0.00 0.00 0.00 77 1017.1
20260507084607 44 355 0.0 0.0 0.00 0.00 0.00 78 1017.2
20260507084354 44 355 0.0 0.0 0.00 0.00 0.00 78 1017.1
20260507083859 44 355 0.0 0.0 0.00 0.00 0.00 78 1017.2
20260507083346 44 355 0.0 0.0 0.00 0.00 0.00 78 1017.1
20260507083105 44 355 0.0 0.0 0.00 0.00 0.00 78 1017.2
20260507082851 44 355 0.0 0.0 0.00 0.00 0.00 78 1017.2
20260507082357 44 355 0.0 0.0 0.00 0.00 0.00 78 1017.1
20260507081903 44 355 0.0 0.0 0.00 0.00 0.00 77 1017.2
20260507081623 44 355 0.0 0.0 0.00 0.00 0.00 77 1017.2
20260507081348 44 355 0.0 0.0 0.00 0.00 0.00 77 1017.2
20260507080851 44 355 0.0 0.0 0.00 0.00 0.00 77 1017.2
20260507080355 44 355 0.0 0.0 0.00 0.00 0.00 77 1017.3
20260507080149 44 355 0.0 0.0 0.00 0.00 0.00 77 1017.4
20260507075842 44 355 0.0 0.0 0.00 0.00 0.00 77 1017.3
20260507075347 44 355 0.0 0.0 0.00 0.00 0.00 77 1017.3
20260507074852 44 355 0.0 0.0 0.00 0.00 0.00 77 1017.4
20260507074613 44 355 0.0 0.0 0.00 0.00 0.00 77 1017.5
20260507074358 44 355 0.0 0.0 0.00 0.00 0.00 77 1017.3
20260507073843 44 355 0.0 0.0 0.00 0.00 0.00 77 1017.5
20260507073349 44 355 0.0 0.0 0.00 0.00 0.00 77 1017.5
20260507073113 43 355 0.0 0.0 0.00 0.00 0.00 77 1017.6
20260507072855 44 355 0.0 0.0 0.00 0.00 0.00 77 1017.5
20260507072340 44 355 0.0 0.0 0.00 0.00 0.00 77 1017.6
20260507071846 44 355 0.0 0.0 0.00 0.00 0.00 77 1017.5
20260507071611 43 355 0.0 0.0 0.00 0.00 0.00 77 1017.5
20260507071351 44 355 0.0 0.0 0.00 0.00 0.00 77 1017.5
20260507070857 43 355 0.0 0.0 0.00 0.00 0.00 76 1017.6
20260507070341 43 355 0.0 0.0 0.00 0.00 0.00 76 1017.6
20260507070139 43 355 0.0 0.0 0.00 0.00 0.00 76 1017.7
20260507065850 43 355 0.0 0.0 0.00 0.00 0.00 76 1017.6
20260507065356 43 355 0.0 0.0 0.00 0.00 0.00 76 1017.7
20260507064842 43 355 0.0 0.0 0.00 0.00 0.00 76 1017.7
20260507064621 43 355 0.0 0.0 0.00 0.00 0.00 76 1017.8
20260507064348 43 355 0.0 0.0 0.00 0.00 0.00 75 1017.6
20260507063913 43 355 0.0 0.0 0.00 0.00 0.00 75 1017.7
20260507063357 43 355 0.0 0.0 0.00 0.00 0.00 75 1017.7
20260507063004 42 355 0.0 0.0 0.00 0.00 0.00 75 1017.8
20260507062903 43 355 0.0 0.0 0.00 0.00 0.00 75 1017.6
20260507062348 43 355 0.0 0.0 0.00 0.00 0.00 75 1017.6
20260507061914 43 355 0.0 0.0 0.00 0.00 0.00 74 1017.7
20260507061618 42 355 0.0 0.0 0.00 0.00 0.00 74 1017.8
20260507061359 43 355 0.0 0.0 0.00 0.00 0.00 74 1017.8
20260507060845 43 355 0.0 0.0 0.00 0.00 0.00 75 1018.0
20260507060350 43 355 0.0 0.0 0.00 0.00 0.00 74 1018.1
20260507060145 43 355 0.0 0.0 0.00 0.00 0.00 74 1018.1
20260507055857 43 355 0.0 0.0 0.00 0.00 0.00 74 1017.9
20260507055343 43 355 0.0 0.0 0.00 0.00 0.00 73 1018.0
20260507054848 43 355 0.0 0.0 0.00 0.00 0.00 73 1017.9
20260507054612 43 355 0.0 0.0 0.00 0.00 0.00 72 1018.0
20260507054354 43 355 0.0 0.0 0.00 0.00 0.00 72 1018.0
20260507053841 44 355 0.0 0.0 0.00 0.00 0.00 72 1018.0
20260507053348 44 355 0.0 0.0 0.00 0.00 0.00 71 1017.9
20260507053111 43 355 0.0 0.0 0.00 0.00 0.00 71 1018.1
20260507052853 44 355 0.0 0.0 0.00 0.00 0.00 71 1017.9
20260507052358 44 355 0.0 0.0 0.00 0.00 0.00 71 1017.9
20260507051843 44 355 0.0 0.0 0.00 0.00 0.00 70 1017.9
20260507051607 44 355 0.0 0.0 0.00 0.00 0.00 71 1017.9
20260507051410 44 355 0.0 0.0 0.00 0.00 0.00 70 1017.9
20260507050856 45 355 0.0 0.0 0.00 0.00 0.00 70 1018.0
20260507050402 45 355 0.0 0.0 0.00 0.00 0.00 69 1018.0
20260507050136 44 355 0.0 0.0 0.00 0.00 0.00 69 1018.0
20260507045848 45 355 0.0 0.0 0.00 0.00 0.00 69 1017.7
20260507045354 45 355 0.0 0.0 0.00 0.00 0.00 69 1017.8
20260507044859 45 355 0.0 0.0 0.00 0.00 0.00 69 1017.7
20260507044622 45 355 0.0 0.0 0.00 0.00 0.00 69 1017.8
20260507044344 45 355 0.0 0.0 0.00 0.00 0.00 69 1017.7
20260507043911 46 355 0.0 0.0 0.00 0.00 0.00 69 1017.7
20260507043416 46 355 0.0 0.0 0.00 0.00 0.00 69 1017.8
20260507043119 45 355 0.0 0.0 0.00 0.00 0.00 68 1017.9
20260507042841 46 355 0.0 0.0 0.00 0.00 0.00 68 1017.9
20260507042347 46 355 0.0 0.0 0.00 0.00 0.00 68 1017.8
20260507041854 46 355 0.0 0.0 0.00 0.00 0.00 68 1017.8
20260507041617 46 355 0.0 0.0 0.00 0.00 0.00 67 1017.9
20260507041359 46 355 0.0 0.0 0.00 0.00 0.00 67 1017.8
20260507040845 47 355 0.0 0.0 0.00 0.00 0.00 66 1017.9
20260507040352 47 355 0.0 0.0 0.00 0.00 0.00 65 1017.9
20260507040001 46 355 0.0 0.0 0.00 0.00 0.00 65 1018.0
20260507035900 47 355 0.0 0.0 0.00 0.00 0.00 65 1018.0
20260507035344 47 355 0.0 0.0 0.00 0.00 0.00 65 1017.8
20260507034850 48 355 0.0 0.0 0.00 0.00 0.00 64 1017.9
20260507034624 47 355 0.0 0.0 0.00 0.00 0.00 64 1018.0
20260507034356 48 355 0.0 0.0 0.00 0.00 0.00 64 1017.9
20260507033843 48 355 0.0 0.0 0.00 0.00 0.00 63 1018.0
20260507033348 48 355 0.0 0.0 0.00 0.00 0.00 62 1018.1
20260507033116 48 355 0.0 0.0 0.00 0.00 0.00 63 1018.1
20260507032853 49 355 0.0 0.0 0.00 0.00 0.00 63 1018.1
20260507032340 49 355 0.0 0.0 0.00 0.00 0.00 62 1018.1
20260507031907 49 355 0.0 0.0 0.00 0.00 0.00 61 1018.0
20260507031610 49 355 0.0 0.0 0.00 0.00 0.00 61 1018.1
20260507031414 49 355 0.0 0.0 0.00 0.00 0.00 60 1018.0
20260507030859 50 355 0.0 0.0 0.00 0.00 0.00 61 1018.0
20260507030345 50 355 0.0 0.0 0.00 0.00 0.00 59 1018.0
20260507030142 49 355 0.0 0.0 0.00 0.00 0.00 59 1018.1
20260507025853 50 355 0.0 0.0 0.00 0.00 0.00 58 1018.0
20260507025420 51 355 0.0 0.0 0.00 0.00 0.00 56 1017.9
20260507024843 51 355 0.0 0.0 0.00 0.00 0.00 57 1017.8
20260507024610 50 355 0.0 0.0 0.00 0.00 0.00 56 1017.9
20260507024351 51 355 0.0 0.0 0.00 0.00 0.00 56 1017.8
20260507023857 51 355 0.0 0.0 0.00 0.00 0.00 56 1017.8
20260507023342 52 355 0.0 0.0 0.00 0.00 0.00 54 1017.9
20260507023114 51 355 0.0 0.0 0.00 0.00 0.00 53 1017.9
20260507022848 52 355 0.0 0.0 0.00 0.00 0.00 53 1017.9
20260507022414 52 355 0.0 0.0 0.00 0.00 0.00 52 1017.7
20260507021858 53 355 0.0 0.0 0.00 0.00 0.00 51 1017.7
20260507021601 52 355 0.0 0.0 0.00 0.00 0.00 51 1017.8
20260507021405 53 355 0.0 0.0 0.00 0.00 0.00 51 1017.6
20260507020911 53 355 0.0 0.0 0.00 0.00 0.00 49 1017.6
20260507020356 53 355 0.0 0.0 0.00 0.00 0.00 48 1017.7
20260507020005 53 355 0.0 0.0 0.00 0.00 0.00 48 1017.7
20260507015904 54 355 0.0 0.0 0.00 0.00 0.00 47 1017.7
20260507015349 54 355 0.0 0.0 0.00 0.00 0.00 47 1017.5
20260507014855 54 355 0.0 0.0 0.00 0.00 0.00 46 1017.5
20260507014619 54 355 0.0 0.0 0.00 0.00 0.00 45 1017.6
20260507014342 54 355 0.0 0.0 0.00 0.00 0.00 45 1017.4
20260507013847 55 355 0.0 0.0 0.00 0.00 0.00 45 1017.4